Regional Weather Roundup
Issued by NWS Albany, NY

Home | Current Version | Previous Version | Text Only | Print | Product List | Glossary On
Versions: 1 2 3 4 5 6 7 8 9 10 11 12 13 14 15 16 17 18 19 20 21 22 23 24 25 26 27
000
ASUS41 KALY 201510
RWRALY

NEW YORK STATE HOURLY WEATHER ROUNDUP
NATIONAL WEATHER SERVICE ALBANY NY
1100 AM EDT SUN AUG 20 2017

NOTE: "FAIR" INDICATES FEW OR NO CLOUDS BELOW 12,000 FEET WITH NO
SIGNIFICANT WEATHER AND/OR NO OBSTRUCTIONS TO VISIBILITY.

NYZ032-033-038>043-046>054-057>066-NYZ062>081-082-084-201600-
EAST


CITY           SKY/WX    TMP DP  RH WIND       PRES   REMARKS
ALBANY         PTSUNNY   74  59  59 NW8       30.04R
GLENS FALLS    MOSUNNY   74  57  55 N6        30.02R
POUGHKEEPSIE   MOSUNNY   76  59  55 NW8       30.04R
NEWBURGH       MOSUNNY   73  61  64 NW9       30.07R
MONTGOMERY     SUNNY     75  58  55 NW12      30.06R
WHITE PLAINS   MOSUNNY   75  60  59 W12       30.05R
ISLIP          MOSUNNY   78  61  55 NW10      30.03R
NEW YORK CITY  MOSUNNY   77  60  55 NW14      30.04R
CENTRAL PARK   SUNNY     76  58  53 W8        30.08R
$$

NYZ005>009-017-018-044>046-055-056-201600-
CENTRAL


CITY           SKY/WX    TMP DP  RH WIND       PRES   REMARKS
FULTON         MOSUNNY   74  62  66 SW5       30.08R
SYRACUSE       MOSUNNY   73  60  63 W9        30.07S
ROME           PTSUNNY   71  62  73 W9        30.07R
ELMIRA         SUNNY     74  63  68 NW9       30.10S
BINGHAMTON     MOSUNNY   67  58  72 NW7       30.12R
MONTICELLO     PTSUNNY   68  58  70 N10       30.11R
$$

NYZ026>034-041>043-087-201600-
NORTH


CITY           SKY/WX    TMP DP  RH WIND       PRES   REMARKS
WATERTOWN      SUNNY     72  65  78 SW9       30.06R
FORT DRUM      NOT AVBL
OGDENSBURG     FAIR      76  62  61 SW7       30.02S
MASSENA        SUNNY     74  62  66 W10       30.02S
SARANAC LAKE   PTSUNNY   67  56  67 MISG      30.05R
PLATTSBURGH    SUNNY     75  55  49 W10       29.99S
$$

NYZ001>004-010>016-019>021-085-201600-
WEST


CITY           SKY/WX    TMP DP  RH WIND       PRES   REMARKS
NIAGARA FALLS  MOSUNNY   78  64  61 SW10      30.09R
BUFFALO        MOSUNNY   74  65  73 SW16G23   30.10R
DUNKIRK        SUNNY     75  61  61 W12G18    30.12R
JAMESTOWN      SUNNY     71  59  65 W8        30.17R
WELLSVILLE     SUNNY     73  59  61 NW12      30.17R
ROCHESTER      MOSUNNY   75  65  70 W10       30.08R
PENN YAN       MOSUNNY   72  58  61 W3        30.11R
$$

             KEY
       WCI = WIND CHILL INDEX
       VSB = VISIBILITY
       HX  = HEAT INDEX
$$




USA.gov is the U.S. government's official web portal to all federal, state and local government web resources and services.